Wind_Speed
32 21 21 21 18 19 22 21 23 24 27 38 40 48 53 47 53 50 48 49 48 51 53 56 62 58 56 56 58 61 60 56 59 61 66 65 65 59 63 58 54 52 56
35 23 20 14 13 16 22 26 28 24 32 38 44 50 56 55 49 52 52 52 55 52 55 56 54 56 60 60 61 58 59 57 61 67 67 63 68 58 55 59 54 55 55
35 25 21 15 16 18 20 20 22 27 32 40 43 50 52 51 51 53 54 54 52 54 53 53 53 53 59 64 65 59 54 63 63 63 64 60 60 56 53 55 57 58 60
34 25 18 15 18 14 16 20 25 31 33 40 39 40 46 51 52 53 54 52 52 48 50 48 54 61 61 57 56 60 63 55 51 53 53 50 52 54 55 57 60 58 57
31 23 15 13 15 12 15 20 28 31 33 35 39 40 41 49 49 46 45 49 53 57 55 57 51 54 54 50 46 48 52 57 54 53 52 53 53 57 59 58 58 57 51
32 26 14 11 13 11 13 17 28 29 29 33 32 33 35 36 39 43 47 45 41 44 53 57 48 50 47 41 45 51 53 50 51 50 52 54 52 55 53 50 50 54 58
29 27 21 11 9 6 15 19 20 25 25 26 28 29 27 28 28 30 32 32 35 34 36 38 37 39 43 48 49 48 51 52 54 54 54 50 48 48 49 51 55 57 63
26 28 23 17 9 6 5 21 23 27 31 31 30 28 30 31 31 32 34 38 36 37 39 41 42 45 45 49 50 52 52 53 48 51 51 52 55 57 53 58 65 62 74
20 24 26 16 15 12 11 12 13 20 31 35 34 34 36 36 38 40 38 39 40 41 41 40 45 44 47 48 49 47 47 47 51 55 57 49 50 54 61 66 68 69 78
18 19 21 20 11 11 14 15 15 13 16 22 29 34 39 42 43 44 43 44 41 40 43 45 49 49 53 49 50 48 50 49 52 52 54 57 53 57 60 63 59 63 80
21 12 20 20 13 8 7 11 17 20 19 18 22 25 29 34 39 43 45 47 45 46 46 45 48 48 48 44 47 48 50 53 51 54 57 55 58 62 62 57 65 72 86
26 16 13 18 16 11 10 9 9 13 18 24 25 26 28 30 33 37 41 42 42 41 42 42 44 45 42 43 47 49 48 50 54 57 58 58 59 66 64 71 72 81 71
31 23 16 15 17 13 13 14 12 10 10 17 25 30 35 37 38 40 41 40 39 40 42 43 44 43 44 47 47 47 51 54 58 56 56 62 64 70 72 67 65 62 65
36 32 22 18 18 14 13 16 17 14 12 12 13 21 25 30 38 41 38 35 36 42 41 43 44 45 46 49 51 53 55 57 58 61 60 54 51 53 57 60 62 65 66
38 39 32 21 21 22 19 17 18 17 15 14 15 16 17 23 27 29 32 33 32 33 37 40 44 46 49 52 54 54 50 51 53 53 54 57 59 62 63 62 66 68 69
42 40 39 33 29 28 26 23 23 20 19 19 18 20 19 19 18 21 24 28 30 32 33 36 38 40 42 44 45 46 48 50 53 56 58 59 60 63 62 63 65 69 71
50 47 42 41 37 35 31 27 26 25 24 23 23 22 22 23 24 25 24 25 27 30 32 35 36 38 42 44 45 48 49 52 55 58 61 63 65 66 67 67 70 73 75
53 49 49 44 43 42 37 31 28 29 30 28 27 26 27 29 28 28 29 31 33 36 38 40 43 46 49 52 54 56 57 59 62 64 66 68 69 72 74 73 72 77 80
56 52 50 49 46 44 40 34 30 32 33 33 31 31 29 30 31 32 34 35 38 39 41 42 44 48 51 54 57 60 63 65 66 69 71 71 74 79 80 79 78 82 85
57 60 56 51 50 45 44 41 35 36 38 41 41 40 39 39 40 40 41 42 42 44 45 48 50 52 54 57 59 62 65 68 71 71 72 75 79 83 82 79 82 87 90
60 61 60 57 54 47 44 48 44 45 46 45 47 48 48 47 47 47 50 50 48 49 52 54 56 58 60 62 65 68 70 73 73 73 75 78 80 81 80 81 84 90 93
64 63 61 64 61 59 50 48 53 54 53 52 53 54 55 54 53 54 55 58 58 59 61 63 64 64 66 69 71 72 74 76 78 78 81 84 87 86 86 86 90 97 100
69 68 66 64 67 61 62 56 53 56 58 55 54 55 57 64 63 60 62 62 66 67 68 70 70 70 73 76 78 78 79 81 82 84 87 89 87 88 92 94 97 101 105
70 70 71 72 70 67 67 67 68 67 65 67 67 67 69 69 67 67 67 71 73 74 76 76 76 79 81 83 84 85 86 87 88 89 91 90 92 95 97 98 102 105 109
74 72 71 71 71 72 72 71 70 72 71 71 72 74 75 75 73 72 74 78 78 80 83 84 83 84 88 89 90 93 92 94 95 97 96 97 99 99 102 106 110 112 114
72 71 73 74 75 74 74 76 75 75 77 78 80 78 78 78 79 81 83 86 86 87 88 89 89 90 94 94 96 97 100 102 103 102 102 104 104 105 108 115 117 118 120
Wind_Direction
334 315 304 282 275 248 236 241 235 230 223 218 216 226 221 221 225 230 233 236 240 238 244 243 248 253 259 265 268 274 274 276 278 280 288 287 290 289 292 291 288 286 288
338 321 319 304 288 248 239 234 227 237 221 219 218 218 221 221 222 227 234 237 243 244 249 252 255 257 260 265 268 269 274 279 279 279 284 289 292 289 288 289 285 285 285
338 324 329 319 290 267 242 224 225 229 218 213 211 221 219 222 227 230 234 239 243 247 253 255 257 260 262 264 264 271 274 278 280 284 285 289 288 288 286 285 283 282 285
334 323 324 307 289 258 229 219 217 219 215 214 203 213 225 229 231 236 241 246 246 246 249 251 251 253 261 267 267 270 277 278 278 282 284 281 285 287 285 286 286 284 284
336 320 316 316 298 234 223 212 209 203 205 210 213 216 222 228 231 233 234 242 246 250 253 255 261 262 266 275 278 274 274 277 278 280 281 281 286 287 289 286 280 278 277
342 332 295 312 316 242 221 212 203 202 206 201 203 215 223 229 234 241 246 250 250 255 256 259 268 269 271 265 266 275 277 276 278 280 281 284 287 287 285 278 281 281 286
339 342 315 282 304 283 226 215 204 208 208 217 213 216 227 237 239 233 242 249 257 255 257 255 257 257 258 261 266 272 277 283 282 285 287 286 284 280 285 278 287 292 308
328 342 337 299 263 252 255 228 222 220 217 219 227 227 228 227 232 239 238 238 240 243 244 249 255 258 259 262 271 279 280 278 279 283 284 287 291 291 297 304 307 306 317
315 327 338 329 285 254 242 235 215 227 226 222 217 217 223 229 230 231 234 239 242 242 245 250 255 259 265 269 273 276 276 279 285 287 290 296 299 308 314 313 316 316 311
293 312 327 336 312 271 259 256 239 228 232 231 231 230 227 226 228 230 234 236 240 247 254 257 262 267 271 275 276 274 276 278 280 293 300 303 311 311 311 310 305 298 300
279 287 309 320 325 329 297 264 250 244 244 241 238 239 238 239 240 241 243 246 249 251 254 255 262 267 274 276 279 280 280 279 287 296 305 309 307 309 307 301 298 296 294
267 262 278 301 316 336 329 337 305 270 257 249 246 243 240 243 245 249 250 249 250 249 249 251 255 264 269 276 279 281 284 288 298 301 309 306 302 294 289 289 284 288 297
259 256 260 272 297 314 329 328 324 331 306 275 260 249 248 252 255 257 259 259 256 258 258 260 266 269 271 272 276 284 290 297 301 302 293 291 283 283 286 290 292 296 299
252 255 251 262 268 282 296 305 317 321 332 331 311 283 279 272 266 272 274 276 271 262 262 263 269 269 273 281 286 293 295 292 288 284 285 287 292 292 291 293 295 295 297
242 250 254 253 266 270 273 282 294 307 311 313 316 319 302 289 284 285 284 286 284 282 280 281 287 288 287 286 285 285 285 285 286 287 286 287 289 289 289 294 297 299 300
240 248 251 253 261 264 268 272 278 288 298 301 307 304 305 312 303 293 291 291 289 289 286 285 287 290 290 292 291 291 287 287 288 287 289 291 292 293 295 299 302 305 306
240 243 247 253 254 256 252 258 268 277 285 290 293 297 292 293 295 296 294 291 289 289 290 288 287 287 287 287 287 288 288 290 291 291 292 292 294 295 296 300 305 307 307
239 237 243 244 255 255 251 254 263 269 274 278 280 282 285 289 291 291 288 288 287 287 287 289 289 287 287 288 289 290 291 292 292 293 294 295 296 297 297 297 301 305 306
236 236 240 244 248 256 258 249 253 261 268 269 271 273 277 282 285 288 288 287 287 289 291 292 292 292 292 292 292 291 290 291 292 293 294 294 294 295 297 300 303 306 306
234 237 236 239 241 251 255 252 251 258 265 268 270 272 274 276 281 282 284 287 291 293 297 299 297 297 296 295 294 292 292 292 295 297 298 300 299 298 298 301 304 307 307
230 237 238 237 236 242 247 253 254 263 271 269 272 273 276 278 280 281 282 284 288 291 294 296 298 300 301 300 299 298 299 299 298 298 300 303 304 301 302 305 307 307 309
227 232 239 241 242 244 241 251 256 263 267 269 273 276 274 275 276 278 279 282 286 290 294 296 297 298 300 302 300 299 299 301 299 298 299 301 303 303 304 306 305 306 308
231 231 236 242 246 244 247 244 252 259 260 262 266 271 273 274 275 279 282 285 285 287 291 293 295 296 297 300 302 301 300 300 299 297 299 301 303 304 305 307 307 307 307
235 236 238 240 244 250 254 256 256 253 255 260 261 264 270 276 277 279 281 280 283 284 287 290 293 294 296 298 300 301 300 300 302 301 301 301 303 305 307 307 305 305 306
236 238 241 244 248 249 253 255 258 261 264 265 266 269 270 273 275 277 278 281 284 286 287 289 293 293 294 296 299 301 300 301 301 301 300 302 304 306 307 308 309 308 307
236 240 244 246 249 250 253 256 259 262 264 266 267 270 273 275 278 280 280 282 285 288 288 289 291 291 293 296 297 300 301 301 302 301 300 303 305 306 307 309 309 308 307
Height
10586 10582 10580 10578 10577 10578 10581 10586 10591 10597 10603 10608 10614 10620 10628 10635 10641 10647 10651 10655 10659 10662 10665 10667 10670 10672 10673 10673 10672 10673 10672 10672 10671 10670 10669 10666 10664 10663 10660 10657 10654 10650 10646
10580 10576 10573 10571 10571 10572 10575 10579 10584 10591 10596 10601 10607 10613 10619 10626 10631 10637 10642 10647 10651 10654 10657 10659 10661 10662 10662 10664 10664 10663 10662 10661 10660 10659 10656 10653 10650 10649 10646 10644 10639 10635 10631
10575 10571 10569 10567 10567 10568 10569 10573 10577 10584 10589 10594 10599 10606 10610 10617 10624 10628 10633 10638 10641 10643 10647 10649 10650 10652 10653 10654 10654 10653 10651 10651 10647 10645 10642 10641 10637 10636 10633 10631 10628 10622 10618
10572 10568 10566 10565 10564 10563 10564 10567 10572 10578 10583 10588 10593 10597 10602 10609 10615 10620 10624 10628 10632 10635 10639 10640 10641 10642 10643 10644 10642 10641 10640 10636 10635 10632 10630 10628 10624 10623 10618 10617 10612 10607 10603
10570 10566 10565 10563 10562 10561 10562 10565 10569 10572 10576 10582 10588 10592 10596 10601 10605 10610 10614 10618 10623 10626 10628 10629 10630 10630 10630 10629 10629 10626 10624 10622 10620 10619 10617 10616 10611 10608 10605 10600 10595 10591 10587
10567 10563 10562 10561 10560 10559 10560 10562 10566 10569 10573 10576 10581 10586 10590 10595 10600 10605 10607 10610 10613 10615 10617 10618 10618 10616 10618 10615 10615 10613 10610 10610 10610 10607 10603 10603 10601 10597 10593 10588 10581 10576 10572
10565 10561 10558 10557 10557 10557 10558 10560 10563 10567 10571 10574 10578 10582 10587 10590 10593 10597 10600 10603 10603 10605 10605 10607 10606 10605 10604 10602 10599 10600 10598 10600 10598 10593 10592 10590 10588 10586 10580 10577 10571 10564 10558
10563 10559 10556 10554 10553 10553 10555 10557 10559 10562 10564 10569 10573 10576 10579 10582 10585 10587 10589 10591 10591 10593 10594 10596 10593 10591 10591 10589 10589 10589 10587 10585 10582 10580 10578 10576 10571 10570 10565 10560 10552 10545 10537
10561 10558 10555 10551 10550 10549 10550 10552 10555 10557 10560 10562 10565 10568 10572 10575 10576 10577 10578 10580 10581 10583 10584 10584 10581 10579 10581 10579 10579 10578 10575 10572 10569 10568 10565 10563 10558 10553 10546 10540 10531 10521 10522
10557 10556 10553 10550 10548 10546 10545 10546 10549 10552 10554 10556 10558 10561 10564 10565 10568 10568 10570 10570 10572 10574 10574 10573 10568 10572 10572 10570 10568 10566 10564 10562 10558 10555 10552 10548 10542 10540 10535 10528 10522 10516 10511
10553 10552 10550 10549 10547 10544 10542 10543 10544 10545 10546 10548 10550 10552 10554 10556 10558 10559 10560 10561 10563 10564 10563 10563 10561 10560 10558 10558 10558 10556 10554 10551 10548 10544 10538 10534 10530 10526 10522 10517 10511 10507 10502
10547 10547 10546 10545 10543 10541 10541 10540 10539 10538 10539 10541 10542 10544 10546 10547 10548 10548 10549 10550 10551 10553 10553 10554 10552 10550 10549 10549 10546 10544 10542 10540 10535 10530 10524 10519 10516 10516 10511 10510 10508 10498 10488
10539 10541 10540 10540 10539 10536 10536 10536 10536 10534 10533 10534 10533 10536 10537 10537 10538 10538 10539 10543 10543 10544 10544 10543 10542 10540 10539 10537 10534 10531 10528 10524 10520 10518 10517 10513 10510 10505 10500 10493 10484 10479 10473
10531 10532 10532 10533 10534 10533 10532 10531 10531 10530 10529 10527 10526 10527 10528 10530 10530 10530 10532 10535 10535 10534 10533 10531 10529 10528 10527 10525 10522 10519 10516 10513 10511 10508 10503 10498 10492 10487 10483 10477 10470 10463 10456
10523 10523 10524 10525 10526 10526 10527 10528 10528 10527 10525 10524 10523 10522 10521 10520 10520 10520 10520 10520 10520 10521 10521 10520 10518 10516 10514 10513 10511 10509 10506 10502 10499 10495 10490 10484 10479 10474 10468 10461 10454 10445 10437
10513 10515 10515 10517 10518 10519 10520 10521 10521 10521 10521 10520 10519 10518 10517 10516 10514 10513 10513 10512 10512 10512 10511 10510 10508 10506 10503 10499 10497 10495 10493 10490 10486 10481 10475 10470 10464 10457 10449 10442 10435 10426 10417
10501 10503 10506 10507 10509 10510 10511 10513 10514 10514 10515 10514 10514 10513 10513 10512 10510 10509 10508 10507 10506 10504 10503 10501 10499 10496 10493 10489 10485 10482 10479 10475 10470 10465 10459 10453 10446 10438 10432 10423 10414 10405 10396
10487 10492 10494 10496 10497 10500 10503 10504 10505 10506 10506 10507 10507 10507 10506 10506 10504 10503 10501 10500 10498 10496 10494 10491 10488 10486 10482 10477 10471 10467 10463 10459 10454 10448 10441 10434 10427 10420 10413 10405 10396 10386 10376
10474 10481 10483 10486 10487 10489 10493 10495 10495 10496 10497 10497 10498 10499 10498 10497 10496 10494 10492 10490 10487 10485 10482 10479 10476 10472 10468 10463 10458 10453 10448 10443 10437 10431 10425 10417 10410 10403 10394 10384 10374 10364 10354
10463 10467 10470 10473 10473 10478 10482 10483 10484 10486 10487 10487 10488 10488 10488 10487 10485 10483 10480 10478 10476 10473 10470 10466 10462 10458 10455 10450 10445 10439 10433 10429 10422 10415 10407 10400 10391 10382 10372 10361 10352 10341 10331
10449 10453 10458 10460 10461 10465 10469 10472 10472 10473 10475 10475 10475 10476 10476 10475 10473 10470 10467 10464 10462 10458 10455 10452 10448 10444 10439 10434 10428 10422 10415 10408 10401 10394 10387 10379 10369 10359 10349 10339 10328 10317 10307
10435 10439 10443 10447 10450 10454 10456 10459 10460 10460 10461 10461 10461 10461 10462 10461 10458 10455 10453 10449 10446 10442 10439 10435 10431 10427 10422 10416 10410 10403 10396 10389 10381 10373 10365 10356 10348 10338 10328 10315 10304 10293 10281
10420 10425 10430 10433 10436 10440 10442 10444 10446 10447 10447 10447 10447 10446 10444 10441 10439 10438 10436 10432 10428 10425 10420 10416 10413 10408 10403 10397 10390 10384 10376 10369 10360 10351 10342 10333 10324 10313 10303 10291 10280 10268 10255
10406 10411 10415 10419 10423 10428 10430 10432 10431 10430 10430 10430 10429 10427 10426 10426 10424 10421 10419 10415 10410 10406 10402 10398 10394 10389 10382 10376 10370 10362 10354 10346 10336 10327 10318 10308 10299 10289 10277 10266 10254 10242 10229
10392 10397 10402 10407 10410 10415 10417 10417 10418 10418 10417 10415 10413 10411 10409 10408 10408 10405 10401 10396 10391 10387 10383 10378 10373 10366 10359 10354 10346 10338 10330 10321 10312 10303 10293 10283 10272 10260 10248 10237 10225 10212 10198
10380 10385 10388 10391 10393 10397 10400 10400 10400 10400 10400 10397 10394 10393 10392 10391 10389 10386 10381 10375 10371 10366 10361 10355 10350 10344 10337 10331 10323 10314 10305 10296 10286 10275 10265 10255 10243 10230 10219 10207 10193 10178 10165